Location: Guilderland
(42.7045°N, 73.9115°W)
Time: 04:26:09
(UTC+00:00)

Cosmos 2218 Rocket - Pass Details

Date: 24 January 2020
Orbit: 956 x 1006 km, 82.9° (Epoch: 18 February)

Event Time Altitude Azimuth Distance (km) Brightness Sun altitude
Rises 23:08:40 0° 181° (S) 3,687 7.2 -13.0°
Reaches altitude 10° 23:11:10 10° 179° (S) 2,749 6.5 -13.5°
Maximum altitude 23:17:28 77° 95° (E) 1,030 4.0 -14.6°
Drops below altitude 10° 23:23:52 10° 11° (N) 2,789 6.2 -15.7°
Sets 23:26:26 0° 10° (N) 3,745 6.8 -16.2°
